Theta_e
280 280 280 280 280 280 279 279 279 279 280 280 280 280 281 282 282 282 283 283 283 282 283 282 282 282 283 282 283 283 283 283 283 285 284 284 284 285 285 285 285 285
279 280 281 279 279 280 279 278 278 278 278 278 279 279 279 280 280 280 280 280 281 281 282 282 282 282 282 282 282 281 281 281 281 284 282 282 283 284 284 284 285 285
278 278 278 278 278 278 278 278 278 278 278 278 278 279 279 280 278 278 278 278 278 279 279 280 281 281 281 281 281 281 280 280 280 281 281 281 281 282 282 283 284 284
279 279 278 278 278 278 278 278 278 278 278 278 278 279 279 280 278 278 278 279 278 278 278 278 278 279 279 280 280 280 280 280 280 280 280 280 280 280 280 281 282 282
279 279 279 278 277 277 278 278 278 278 278 278 278 279 279 279 278 278 279 278 278 278 278 278 278 278 278 278 278 277 278 278 279 279 278 278 279 280 280 280 280 280
278 277 278 278 278 278 278 278 278 278 278 278 278 278 278 278 277 277 278 278 278 278 278 278 278 278 278 277 277 277 277 277 278 278 277 277 278 279 279 279 279 279
277 277 277 277 277 277 277 277 278 278 277 277 277 277 277 277 277 277 277 277 277 277 277 277 277 277 277 277 276 276 277 277 277 277 276 276 277 277 278 278 278 278
276 276 276 276 276 276 276 277 277 277 277 277 277 277 277 277 277 277 277 277 276 276 276 276 276 276 276 276 276 276 276 277 277 276 276 276 276 276 276 277 277 277
275 275 275 275 275 276 276 276 276 276 277 276 276 276 277 276 276 276 276 276 276 276 275 275 276 275 276 276 275 275 275 275 276 275 275 275 275 275 275 276 276 276
275 275 275 275 275 275 275 275 276 276 276 276 276 276 275 276 276 275 275 275 275 275 275 275 275 275 275 275 275 275 275 275 275 275 275 275 275 275 275 275 275 275
275 275 275 275 275 275 275 275 275 275 275 274 275 274 274 274 274 274 274 274 274 273 273 273 274 274 274 274 274 274 274 274 274 275 275 275 275 275 277 275 275 275
275 275 275 275 275 275 274 274 274 274 273 273 273 273 273 273 272 272 272 272 272 272 272 272 272 272 272 273 273 273 274 274 274 274 274 275 275 275 276 276 276 276
274 274 274 274 274 274 274 273 272 272 272 271 272 271 271 271 271 271 271 271 271 271 271 271 271 271 271 271 272 272 272 273 273 274 274 275 275 275 275 276 276 276
274 274 274 274 273 273 272 271 271 270 270 270 269 269 269 269 269 269 269 270 270 269 269 270 269 269 270 270 271 271 272 272 273 273 273 273 274 274 274 275 275 275
273 273 272 272 271 270 270 269 269 268 268 268 268 268 268 268 268 268 268 267 268 268 268 268 268 268 269 269 270 271 272 272 272 272 272 272 272 273 273 274 274 274
271 270 270 270 269 268 267 267 266 266 266 266 266 266 266 266 266 266 266 265 265 266 266 266 266 267 269 272 274 272 272 272 272 272 272 272 271 271 271 272 272 273
269 268 268 267 267 266 264 264 265 264 263 264 263 264 264 264 264 264 264 264 264 264 264 265 265 266 270 272 274 275 273 272 271 271 271 271 271 271 271 271 272 272
267 266 265 265 264 263 263 262 261 261 261 262 261 262 263 262 263 263 263 263 263 263 263 263 263 266 270 272 273 274 274 272 272 271 271 271 270 270 270 270 270 270
265 263 263 262 262 261 261 260 260 261 260 260 260 261 261 261 262 262 262 262 262 262 262 262 262 266 269 271 273 274 274 273 271 271 270 270 269 269 268 268 268 268
264 262 262 261 261 260 260 259 259 259 260 260 260 260 260 260 260 261 261 261 261 261 261 261 261 265 270 271 272 273 274 274 271 270 269 268 268 268 268 268 268 268
263 262 260 261 260 259 258 258 259 259 259 260 259 260 260 259 259 259 259 260 260 260 260 260 261 267 269 271 271 273 274 273 270 268 267 267 268 268 268 268 268 268
261 260 259 259 260 258 258 259 259 258 258 259 258 259 258 259 259 259 259 259 259 259 259 259 260 266 268 270 271 272 273 270 268 267 267 267 267 267 268 268 268 268
262 260 259 258 258 258 257 257 259 258 258 257 257 258 258 258 258 258 258 258 258 258 258 258 259 263 268 269 271 272 271 268 268 267 266 266 266 267 268 268 268 268
261 259 258 257 256 256 256 258 257 257 256 257 257 257 257 257 258 257 258 258 258 257 258 258 259 262 267 269 270 271 271 268 267 266 266 266 266 267 267 268 268 270
259 258 258 257 256 257 256 256 256 256 257 256 257 256 257 257 257 257 257 257 257 258 260 260 259 261 265 267 269 271 270 268 268 267 266 266 266 266 267 268 268 269
258 258 257 256 257 256 255 256 256 255 255 256 256 256 256 256 256 256 256 256 257 257 258 258 258 259 261 267 269 270 272 269 268 267 265 266 266 267 266 267 268 268
Wind_Speed
7 6 8 8 7 6 6 6 5 6 5 5 6 5 5 5 6 7 7 8 8 8 8 7 7 7 7 6 6 5 5 5 5 5 7 6 6 5 6 6 4 3
7 6 6 6 6 5 5 4 4 5 4 4 4 3 3 3 4 4 4 5 6 7 7 8 8 8 8 7 7 6 6 6 7 4 6 6 6 6 6 6 5 4
6 6 6 6 6 4 4 3 3 3 4 3 2 2 3 2 3 3 3 4 4 4 5 5 7 7 7 8 8 7 7 8 7 6 6 6 6 6 6 6 6 5
5 5 5 4 4 4 2 4 4 4 4 6 7 5 5 5 5 6 5 5 5 5 5 5 5 5 5 6 6 6 7 6 6 6 7 6 5 4 6 5 5 5
4 4 4 4 3 3 4 6 6 7 7 6 6 7 7 8 8 8 8 8 8 9 8 8 7 7 6 6 5 6 5 6 6 6 6 7 6 6 6 5 6 6
4 4 4 4 4 5 6 5 4 5 5 6 6 5 5 5 5 6 7 8 7 8 8 8 9 8 8 8 8 7 7 7 6 6 6 6 7 6 6 6 7 7
3 4 4 4 5 5 6 5 5 5 4 4 4 5 4 6 6 6 6 6 6 7 7 7 7 8 6 6 6 7 7 6 7 7 8 8 7 9 6 6 7 8
4 3 3 4 4 4 5 5 5 5 4 4 5 5 5 6 6 6 5 6 6 7 7 7 7 6 7 6 7 8 7 6 7 8 8 9 8 9 8 7 8 9
3 4 3 4 5 5 5 6 5 5 5 6 6 6 6 5 6 6 6 6 6 6 7 7 7 7 7 7 8 8 9 8 7 7 8 9 10 10 10 8 9 10
5 3 5 5 5 4 6 5 6 6 5 6 5 5 6 5 5 5 4 5 5 6 6 6 7 7 7 6 7 8 8 9 9 9 8 8 9 10 10 9 9 11
5 4 6 6 5 5 6 5 5 5 5 5 5 5 5 5 5 4 5 5 6 6 7 6 7 7 7 7 7 7 7 8 9 8 9 10 10 10 9 10 10 10
4 5 5 5 5 5 5 5 6 5 5 5 5 6 6 5 6 6 6 6 6 6 6 6 6 7 7 7 8 7 7 8 9 9 9 10 11 11 10 9 9 11
5 5 5 5 5 5 5 5 5 5 6 6 6 6 6 6 6 6 6 5 6 5 6 7 7 6 7 7 7 7 9 10 10 10 10 9 9 10 10 10 10 10
4 5 5 4 4 5 5 5 5 5 5 5 5 6 5 6 7 7 6 5 6 6 6 6 6 7 6 6 7 8 9 10 10 10 11 10 10 10 10 10 10 10
4 4 3 3 4 4 4 5 5 5 5 4 4 4 5 5 6 7 6 7 6 7 7 6 6 6 6 7 9 10 9 10 10 10 10 12 11 11 10 11 11 10
4 3 3 3 4 4 4 4 4 4 4 4 5 4 4 5 6 5 5 7 7 7 6 6 6 5 9 17 15 11 12 10 10 10 10 10 10 12 11 10 10 11
3 3 3 3 4 4 3 3 5 4 3 4 4 4 6 6 6 6 6 6 7 7 8 6 5 6 16 17 18 19 14 12 12 13 12 12 12 13 13 13 11 11
3 4 4 4 3 3 3 3 3 3 3 4 4 4 4 3 5 5 6 6 6 7 7 7 7 11 17 18 19 19 17 13 12 11 11 11 12 12 12 13 14 13
4 3 2 2 2 2 3 3 3 4 4 4 5 4 4 4 6 7 6 6 7 8 8 7 7 13 17 19 19 20 20 17 11 11 11 11 11 12 13 13 13 13
3 2 2 2 2 2 3 3 3 4 4 4 4 4 4 5 4 6 5 7 7 8 8 8 8 13 19 20 20 21 20 18 11 10 10 11 11 11 11 12 12 12
4 2 3 2 2 3 3 3 3 4 4 4 4 5 6 6 6 6 6 6 7 7 9 9 7 17 19 20 20 21 21 18 9 10 9 10 11 11 12 12 13 12
2 2 2 2 3 3 3 4 3 4 5 5 4 4 3 4 4 4 7 8 7 8 9 10 9 17 20 20 21 20 22 11 9 10 10 10 10 11 12 11 12 12
1 1 1 2 3 4 3 4 4 5 4 3 5 5 5 5 5 5 6 7 8 7 9 10 9 14 20 20 21 22 17 7 9 9 10 11 11 12 11 11 11 12
1 0 1 2 3 3 4 3 3 3 3 3 5 7 7 5 6 7 6 6 8 9 8 10 10 14 20 21 21 21 18 10 6 7 9 11 11 11 11 11 12 22
0 0 1 2 3 3 3 4 4 4 4 3 4 4 6 6 6 7 7 6 6 8 12 13 11 12 18 19 21 20 16 9 7 7 8 10 10 11 11 12 12 15
0 1 1 2 3 3 3 4 4 3 4 4 5 4 6 6 6 7 9 8 7 8 8 8 11 10 11 20 19 20 20 12 8 8 9 11 10 10 11 10 10 9
Wind_Direction
76 74 77 75 71 68 64 66 53 63 54 46 51 33 32 11 10 18 15 15 14 15 12 12 12 14 12 10 9 4 10 4 0 357 356 352 348 352 347 343 343 342
73 77 82 82 74 67 64 73 70 72 64 61 56 44 19 24 9 24 17 14 11 11 5 7 8 8 7 8 3 4 1 3 1 354 354 348 342 343 339 335 329 321
73 75 77 80 86 83 84 76 87 78 76 67 61 50 22 27 17 16 20 19 15 9 8 5 6 4 4 3 0 360 359 355 356 351 349 342 336 337 329 327 327 325
86 95 99 100 102 100 93 72 48 47 40 32 26 14 16 9 10 9 12 11 13 8 6 8 8 0 3 360 359 358 351 349 342 343 341 337 337 330 325 320 310 312
90 83 80 82 76 66 52 45 34 30 30 21 12 13 11 7 6 4 4 2 4 1 1 4 4 2 360 357 358 351 345 341 335 343 338 330 327 332 322 323 317 313
52 63 61 73 56 52 44 40 32 28 23 18 9 8 10 2 6 3 359 359 357 357 356 357 357 357 356 353 350 350 340 338 331 332 328 322 317 320 318 319 316 313
62 54 49 52 54 46 50 36 28 27 20 2 1 9 3 360 3 359 358 356 353 354 354 349 349 346 348 346 344 337 336 328 326 330 325 319 316 313 314 314 312 307
43 46 42 42 64 45 47 38 24 22 12 5 18 358 8 360 359 353 354 353 356 350 349 346 342 342 339 344 338 333 329 329 327 325 320 315 316 311 315 316 309 307
65 44 46 43 50 35 34 26 19 13 12 15 6 358 358 358 350 350 349 350 351 347 344 341 340 337 341 339 334 331 325 323 320 315 310 310 311 307 309 310 306 302
54 41 54 45 47 32 34 22 21 16 9 12 360 354 350 342 342 342 348 346 344 340 339 336 334 333 334 332 325 323 318 314 316 314 309 304 300 302 305 305 300 300
49 47 49 40 38 32 27 24 22 17 10 2 356 353 348 343 345 353 349 350 351 341 336 337 333 332 329 325 320 314 309 307 307 305 304 302 299 299 299 300 299 294
47 44 42 39 33 28 27 26 21 13 5 2 359 350 349 354 353 353 351 348 345 337 334 335 337 332 326 320 316 316 313 310 306 302 300 300 299 297 296 295 295 296
49 45 42 36 31 29 27 21 16 5 5 360 354 351 349 351 350 348 346 343 332 340 340 338 333 330 325 317 319 319 312 305 304 301 298 297 295 295 297 296 294 293
50 50 44 35 36 31 28 19 7 3 1 353 350 352 354 347 348 344 338 338 337 343 337 335 329 326 320 321 314 309 307 303 303 302 300 296 294 293 291 289 290 289
65 57 49 44 43 32 26 11 2 359 351 346 351 352 348 342 346 339 336 341 342 338 339 335 329 324 329 319 315 311 307 303 302 300 300 299 297 297 297 298 296 293
82 66 53 50 41 29 18 0 355 355 348 350 356 347 341 345 340 339 348 340 337 333 336 330 323 322 311 312 314 312 311 308 304 300 297 297 297 298 293 289 286 289
86 68 59 49 35 24 6 3 357 352 352 351 350 347 346 347 338 342 346 335 333 329 325 323 314 307 309 312 313 313 312 308 306 305 305 305 305 307 308 310 310 306
73 58 45 33 24 11 2 356 348 346 350 348 342 345 342 334 334 339 332 332 325 321 314 312 306 303 309 309 311 310 310 307 306 304 305 305 306 307 307 309 308 309
67 57 45 33 21 2 350 344 348 343 348 347 347 338 327 338 336 333 329 327 320 315 312 305 295 304 308 310 312 312 311 310 304 305 305 307 308 308 306 305 304 303
69 55 37 16 7 357 355 351 353 350 340 332 330 332 335 329 329 325 320 317 316 313 308 306 298 304 311 314 314 312 312 312 310 313 310 306 304 302 300 299 300 302
52 38 18 359 353 357 356 350 345 334 338 336 336 330 329 326 325 321 315 312 310 308 305 303 298 309 314 315 313 313 313 317 319 313 304 300 299 298 299 299 300 300
48 28 359 347 344 350 352 340 337 331 331 326 322 313 298 302 300 300 306 308 306 304 303 301 302 312 314 313 312 314 316 319 313 305 304 301 300 299 299 298 298 298
43 24 339 339 344 343 336 329 328 324 322 317 314 308 310 308 302 303 302 302 302 301 301 300 300 311 312 312 314 314 316 298 309 309 301 301 298 300 299 298 296 294
41 19 333 332 331 321 314 307 307 299 300 311 309 311 309 303 305 301 294 293 295 296 296 297 298 306 310 312 313 312 313 311 295 291 294 298 298 296 297 291 283 283
88 4 324 312 304 299 302 303 305 300 298 297 286 290 292 300 300 298 295 290 283 286 294 296 293 299 304 308 309 310 312 304 297 291 294 299 298 292 281 274 262 267
22 324 304 298 293 298 296 286 289 299 297 302 297 289 294 298 295 292 293 292 289 288 288 286 290 290 294 303 306 308 310 308 297 297 290 288 280 277 282 273 261 255